| time (UTC) | temp F | wind direction | speed MPH | gust MPH | rain 1hr in | rain 24hr in | rain mn in | humidity % | barometer mb |
| 20260831235114 | 83 | 155 | 2.0 | 7.0 | 0.00 | 0.00 | 0.00 | 40 | 997.5 |
| 20260831235017 | 84 | 155 | 2.0 | 7.0 | 0.00 | 0.00 | 0.00 | 40 | 997.6 |
| 20260831234530 | 84 | 157 | 1.0 | 5.0 | 0.00 | 0.00 | 0.00 | 40 | 997.5 |
| 20260831234512 | 84 | 158 | 2.0 | 5.0 | 0.00 | 0.00 | 0.00 | 40 | 997.6 |
| 20260831234042 | 84 | 157 | 2.0 | 5.0 | 0.00 | 0.00 | 0.00 | 40 | 997.6 |
| 20260831234014 | 84 | 157 | 2.0 | 5.0 | 0.00 | 0.00 | 0.00 | 41 | 997.6 |
| 20260831233608 | 84 | 142 | 1.0 | 6.0 | 0.00 | 0.00 | 0.00 | 41 | 997.5 |
| 20260831233504 | 84 | 141 | 2.0 | 6.0 | 0.00 | 0.00 | 0.00 | 41 | 997.6 |
| 20260831233048 | 84 | 141 | 2.0 | 9.0 | 0.00 | 0.00 | 0.00 | 41 | 997.5 |
| 20260831233002 | 84 | 141 | 3.0 | 9.0 | 0.00 | 0.00 | 0.00 | 41 | 997.7 |
| 20260831232618 | 84 | 136 | 1.0 | 7.0 | 0.00 | 0.00 | 0.00 | 41 | 997.6 |
| 20260831232522 | 84 | 135 | 1.0 | 7.0 | 0.00 | 0.00 | 0.00 | 40 | 997.6 |
| 20260831232026 | 83 | 209 | 0.0 | 6.0 | 0.00 | 0.00 | 0.00 | 40 | 997.6 |
| 20260831231949 | 84 | 209 | 1.0 | 6.0 | 0.00 | 0.00 | 0.00 | 39 | 997.7 |
| 20260831231600 | 83 | 209 | 1.0 | 6.0 | 0.00 | 0.00 | 0.00 | 39 | 997.7 |
| 20260831231531 | 84 | 209 | 1.0 | 6.0 | 0.00 | 0.00 | 0.00 | 39 | 997.7 |
| 20260831231104 | 83 | 209 | 1.0 | 6.0 | 0.00 | 0.00 | 0.00 | 40 | 997.6 |
| 20260831231000 | 83 | 209 | 2.0 | 6.0 | 0.00 | 0.00 | 0.00 | 40 | 997.7 |
| 20260831230532 | 83 | 209 | 1.0 | 5.0 | 0.00 | 0.00 | 0.00 | 40 | 997.6 |
| 20260831230449 | 83 | 220 | 1.0 | 5.0 | 0.00 | 0.00 | 0.00 | 40 | 997.7 |
| 20260831230011 | 83 | 229 | 1.0 | 6.0 | 0.00 | 0.00 | 0.00 | 40 | 997.7 |
| 20260831225956 | 83 | 229 | 1.0 | 6.0 | 0.00 | 0.00 | 0.00 | 40 | 997.8 |
| 20260831225535 | 82 | 234 | 0.0 | 6.0 | 0.00 | 0.00 | 0.00 | 41 | 997.7 |
| 20260831225450 | 83 | 234 | 1.0 | 6.0 | 0.00 | 0.00 | 0.00 | 41 | 997.8 |
| 20260831225012 | 82 | 235 | 0.0 | 5.0 | 0.00 | 0.00 | 0.00 | 41 | 997.8 |
| 20260831224941 | 83 | 234 | 1.0 | 5.0 | 0.00 | 0.00 | 0.00 | 41 | 997.9 |
| 20260831224545 | 82 | 234 | 1.0 | 5.0 | 0.00 | 0.00 | 0.00 | 41 | 997.9 |
| 20260831224504 | 82 | 234 | 1.0 | 5.0 | 0.00 | 0.00 | 0.00 | 41 | 998.0 |
| 20260831224018 | 82 | 270 | 1.0 | 5.0 | 0.00 | 0.00 | 0.00 | 40 | 998.0 |
| 20260831223956 | 82 | 273 | 1.0 | 5.0 | 0.00 | 0.00 | 0.00 | 40 | 998.0 |
| 20260831223548 | 81 | 197 | 0.0 | 6.0 | 0.00 | 0.00 | 0.00 | 40 | 997.9 |
| 20260831223451 | 82 | 197 | 1.0 | 6.0 | 0.00 | 0.00 | 0.00 | 40 | 998.0 |
| 20260831223117 | 81 | 217 | 0.0 | 6.0 | 0.00 | 0.00 | 0.00 | 40 | 998.0 |
| 20260831223012 | 82 | 217 | 1.0 | 6.0 | 0.00 | 0.00 | 0.00 | 40 | 998.0 |
| 20260831222531 | 81 | 194 | 1.0 | 6.0 | 0.00 | 0.00 | 0.00 | 41 | 998.0 |
| 20260831222446 | 82 | 194 | 2.0 | 6.0 | 0.00 | 0.00 | 0.00 | 40 | 998.1 |
| 20260831222104 | 81 | 163 | 1.0 | 7.0 | 0.00 | 0.00 | 0.00 | 42 | 998.0 |
| 20260831222004 | 81 | 158 | 1.0 | 7.0 | 0.00 | 0.00 | 0.00 | 42 | 998.1 |
| 20260831221514 | 81 | 163 | 2.0 | 7.0 | 0.00 | 0.00 | 0.00 | 41 | 998.1 |
| 20260831221457 | 81 | 163 | 2.0 | 7.0 | 0.00 | 0.00 | 0.00 | 41 | 998.2 |
| 20260831221044 | 80 | 279 | 0.0 | 7.0 | 0.00 | 0.00 | 0.00 | 41 | 998.1 |
| 20260831221016 | 81 | 280 | 1.0 | 7.0 | 0.00 | 0.00 | 0.00 | 42 | 998.2 |
| 20260831220556 | 80 | 281 | 2.0 | 7.0 | 0.00 | 0.00 | 0.00 | 41 | 998.1 |
| 20260831220517 | 80 | 240 | 2.0 | 6.0 | 0.00 | 0.00 | 0.00 | 41 | 998.2 |
| 20260831220025 | 80 | 136 | 2.0 | 7.0 | 0.00 | 0.00 | 0.00 | 42 | 998.2 |
| 20260831220006 | 80 | 136 | 2.0 | 7.0 | 0.00 | 0.00 | 0.00 | 42 | 998.3 |
| 20260831215541 | 80 | 138 | 3.0 | 7.0 | 0.00 | 0.00 | 0.00 | 42 | 998.3 |
| 20260831215446 | 80 | 138 | 4.0 | 7.0 | 0.00 | 0.00 | 0.00 | 42 | 998.3 |
| 20260831215023 | 79 | 138 | 2.0 | 7.0 | 0.00 | 0.00 | 0.00 | 43 | 998.4 |
| 20260831215008 | 80 | 138 | 3.0 | 7.0 | 0.00 | 0.00 | 0.00 | 43 | 998.4 |
| 20260831214530 | 79 | 138 | 2.0 | 8.0 | 0.00 | 0.00 | 0.00 | 44 | 998.5 |
| 20260831214506 | 79 | 138 | 2.0 | 8.0 | 0.00 | 0.00 | 0.00 | 43 | 998.5 |
| 20260831214053 | 79 | 289 | 2.0 | 8.0 | 0.00 | 0.00 | 0.00 | 44 | 998.5 |
| 20260831213953 | 79 | 286 | 3.0 | 8.0 | 0.00 | 0.00 | 0.00 | 44 | 998.6 |
| 20260831213534 | 78 | 271 | 1.0 | 7.0 | 0.00 | 0.00 | 0.00 | 43 | 998.5 |
| 20260831213511 | 79 | 169 | 1.0 | 7.0 | 0.00 | 0.00 | 0.00 | 43 | 998.6 |
| 20260831213101 | 78 | 169 | 1.0 | 7.0 | 0.00 | 0.00 | 0.00 | 44 | 998.6 |
| 20260831213003 | 79 | 169 | 2.0 | 7.0 | 0.00 | 0.00 | 0.00 | 44 | 998.6 |
| 20260831212528 | 78 | 169 | 1.0 | 6.0 | 0.00 | 0.00 | 0.00 | 44 | 998.7 |
| 20260831212456 | 78 | 174 | 2.0 | 6.0 | 0.00 | 0.00 | 0.00 | 44 | 998.7 |
| 20260831212059 | 77 | 279 | 0.0 | 6.0 | 0.00 | 0.00 | 0.00 | 45 | 998.7 |
| 20260831211955 | 78 | 279 | 0.0 | 6.0 | 0.00 | 0.00 | 0.00 | 45 | 998.8 |
| 20260831211611 | 77 | 279 | 1.0 | 6.0 | 0.00 | 0.00 | 0.00 | 45 | 998.7 |
| 20260831211518 | 78 | 279 | 2.0 | 6.0 | 0.00 | 0.00 | 0.00 | 45 | 998.8 |
| 20260831211132 | 77 | 275 | 1.0 | 6.0 | 0.00 | 0.00 | 0.00 | 46 | 998.8 |
| 20260831211009 | 78 | 279 | 2.0 | 6.0 | 0.00 | 0.00 | 0.00 | 46 | 998.9 |
| 20260831210555 | 77 | 279 | 0.0 | 8.0 | 0.00 | 0.00 | 0.00 | 48 | 998.9 |
| 20260831210500 | 77 | 276 | 0.0 | 8.0 | 0.00 | 0.00 | 0.00 | 48 | 998.9 |
| 20260831210126 | 77 | 279 | 0.0 | 8.0 | 0.00 | 0.00 | 0.00 | 47 | 999.0 |
| 20260831210022 | 77 | 279 | 1.0 | 8.0 | 0.00 | 0.00 | 0.00 | 47 | 999.0 |
| 20260831205534 | 76 | 279 | 2.0 | 8.0 | 0.00 | 0.00 | 0.00 | 47 | 999.0 |
| 20260831205444 | 77 | 279 | 2.0 | 8.0 | 0.00 | 0.00 | 0.00 | 48 | 999.0 |
| 20260831205106 | 76 | 279 | 0.0 | 4.0 | 0.00 | 0.00 | 0.00 | 48 | 999.0 |
| 20260831205023 | 77 | 281 | 1.0 | 4.0 | 0.00 | 0.00 | 0.00 | 48 | 999.1 |
| 20260831204526 | 76 | 282 | 1.0 | 6.0 | 0.00 | 0.00 | 0.00 | 49 | 999.0 |
| 20260831204504 | 76 | 282 | 1.0 | 6.0 | 0.00 | 0.00 | 0.00 | 49 | 999.1 |
| 20260831204155 | 76 | 282 | 2.0 | 6.0 | 0.00 | 0.00 | 0.00 | 49 | 999.1 |
| 20260831203944 | 76 | 282 | 2.0 | 6.0 | 0.00 | 0.00 | 0.00 | 49 | 999.1 |
| 20260831203524 | 75 | 282 | 0.0 | 5.0 | 0.00 | 0.00 | 0.00 | 50 | 999.1 |
| 20260831203506 | 76 | 282 | 1.0 | 5.0 | 0.00 | 0.00 | 0.00 | 50 | 999.2 |
| 20260831203050 | 75 | 282 | 1.0 | 6.0 | 0.00 | 0.00 | 0.00 | 50 | 999.2 |
| 20260831202956 | 75 | 282 | 2.0 | 6.0 | 0.00 | 0.00 | 0.00 | 51 | 999.2 |
| 20260831202522 | 75 | 281 | 2.0 | 6.0 | 0.00 | 0.00 | 0.00 | 51 | 999.3 |
| 20260831202448 | 75 | 281 | 2.0 | 6.0 | 0.00 | 0.00 | 0.00 | 51 | 999.3 |
| 20260831202101 | 74 | 281 | 1.0 | 7.0 | 0.00 | 0.00 | 0.00 | 51 | 999.3 |
| 20260831202030 | 75 | 281 | 1.0 | 7.0 | 0.00 | 0.00 | 0.00 | 52 | 999.3 |
| 20260831201604 | 74 | 281 | 1.0 | 6.0 | 0.00 | 0.00 | 0.00 | 51 | 999.4 |
| 20260831201510 | 74 | 277 | 1.0 | 6.0 | 0.00 | 0.00 | 0.00 | 51 | 999.4 |
| 20260831201455 | 75 | 281 | 2.0 | 6.0 | 0.00 | 0.00 | 0.00 | 51 | 999.4 |
| 20260831201134 | 74 | 282 | 1.0 | 6.0 | 0.00 | 0.00 | 0.00 | 52 | 999.4 |
| 20260831201035 | 74 | 281 | 1.0 | 6.0 | 0.00 | 0.00 | 0.00 | 52 | 999.4 |
| 20260831200520 | 74 | 281 | 0.0 | 5.0 | 0.00 | 0.00 | 0.00 | 53 | 999.4 |
| 20260831200441 | 74 | 281 | 1.0 | 5.0 | 0.00 | 0.00 | 0.00 | 53 | 999.5 |
| 20260831200106 | 73 | 281 | 2.0 | 5.0 | 0.00 | 0.00 | 0.00 | 53 | 999.5 |
| 20260831195946 | 74 | 280 | 3.0 | 5.0 | 0.00 | 0.00 | 0.00 | 53 | 999.5 |
| 20260831195608 | 73 | 280 | 2.0 | 5.0 | 0.00 | 0.00 | 0.00 | 53 | 999.5 |
| 20260831195506 | 74 | 280 | 2.0 | 5.0 | 0.00 | 0.00 | 0.00 | 53 | 999.6 |
| 20260831195037 | 73 | 281 | 0.0 | 4.0 | 0.00 | 0.00 | 0.00 | 54 | 999.7 |
| 20260831194958 | 74 | 280 | 1.0 | 4.0 | 0.00 | 0.00 | 0.00 | 54 | 999.7 |
| 20260831194508 | 73 | 281 | 0.0 | 2.0 | 0.00 | 0.00 | 0.00 | 54 | 999.8 |
| 20260831194444 | 73 | 281 | 1.0 | 2.0 | 0.00 | 0.00 | 0.00 | 54 | 999.7 |
| 20260831194042 | 73 | 280 | 0.0 | 4.0 | 0.00 | 0.00 | 0.00 | 54 | 999.8 |
| 20260831194008 | 73 | 281 | 1.0 | 4.0 | 0.00 | 0.00 | 0.00 | 54 | 999.9 |
| 20260831193510 | 73 | 280 | 1.0 | 6.0 | 0.00 | 0.00 | 0.00 | 55 | 999.8 |
| 20260831193453 | 73 | 280 | 2.0 | 6.0 | 0.00 | 0.00 | 0.00 | 55 | 999.9 |
| 20260831193044 | 72 | 281 | 1.0 | 6.0 | 0.00 | 0.00 | 0.00 | 56 | 999.9 |
| 20260831193008 | 73 | 279 | 1.0 | 6.0 | 0.00 | 0.00 | 0.00 | 55 | 999.9 |
| 20260831192552 | 72 | 279 | 0.0 | 6.0 | 0.00 | 0.00 | 0.00 | 56 | 999.9 |
| 20260831192507 | 73 | 279 | 0.0 | 6.0 | 0.00 | 0.00 | 0.00 | 56 | 999.9 |
| 20260831192020 | 72 | 279 | 2.0 | 6.0 | 0.00 | 0.00 | 0.00 | 56 | 1000.0 |
| 20260831191951 | 72 | 279 | 2.0 | 6.0 | 0.00 | 0.00 | 0.00 | 56 | 1000.0 |
| 20260831191549 | 72 | 338 | 1.0 | 5.0 | 0.00 | 0.00 | 0.00 | 57 | 1000.0 |
| 20260831191445 | 72 | 338 | 1.0 | 4.0 | 0.00 | 0.00 | 0.00 | 57 | 1000.1 |
| 20260831191036 | 72 | 344 | 0.0 | 3.0 | 0.00 | 0.00 | 0.00 | 58 | 1000.1 |
| 20260831190950 | 72 | 343 | 1.0 | 3.0 | 0.00 | 0.00 | 0.00 | 58 | 1000.2 |
| 20260831190540 | 71 | 343 | 0.0 | 3.0 | 0.00 | 0.00 | 0.00 | 59 | 1000.2 |
| 20260831190512 | 71 | 344 | 0.0 | 2.0 | 0.00 | 0.00 | 0.00 | 59 | 1000.3 |
| 20260831190055 | 71 | 342 | 0.0 | 4.0 | 0.00 | 0.00 | 0.00 | 59 | 1000.2 |
| 20260831185945 | 71 | 343 | 0.0 | 4.0 | 0.00 | 0.00 | 0.00 | 59 | 1000.3 |
| 20260831185609 | 70 | 344 | 0.0 | 5.0 | 0.00 | 0.00 | 0.00 | 60 | 1000.3 |
| 20260831185530 | 70 | 343 | 1.0 | 5.0 | 0.00 | 0.00 | 0.00 | 61 | 1000.4 |
| 20260831185010 | 69 | 346 | 0.0 | 5.0 | 0.00 | 0.00 | 0.00 | 61 | 1000.4 |
| 20260831184954 | 70 | 346 | 1.0 | 4.0 | 0.00 | 0.00 | 0.00 | 61 | 1000.4 |
| 20260831184636 | 69 | 347 | 0.0 | 4.0 | 0.00 | 0.00 | 0.00 | 62 | 1000.4 |
| 20260831184534 | 69 | 344 | 1.0 | 4.0 | 0.00 | 0.00 | 0.00 | 62 | 1000.5 |
| 20260831184025 | 69 | 344 | 0.0 | 5.0 | 0.00 | 0.00 | 0.00 | 63 | 1000.5 |
| 20260831183942 | 69 | 344 | 1.0 | 5.0 | 0.00 | 0.00 | 0.00 | 63 | 1000.5 |
| 20260831183558 | 68 | 344 | 1.0 | 5.0 | 0.00 | 0.00 | 0.00 | 63 | 1000.5 |
| 20260831183505 | 69 | 344 | 1.0 | 5.0 | 0.00 | 0.00 | 0.00 | 63 | 1000.6 |
| 20260831183113 | 68 | 344 | 0.0 | 4.0 | 0.00 | 0.00 | 0.00 | 64 | 1000.6 |
| 20260831183008 | 68 | 344 | 1.0 | 4.0 | 0.00 | 0.00 | 0.00 | 64 | 1000.7 |
| 20260831182541 | 68 | 355 | 0.0 | 5.0 | 0.00 | 0.00 | 0.00 | 65 | 1000.7 |
| 20260831182458 | 68 | 355 | 0.0 | 5.0 | 0.00 | 0.00 | 0.00 | 65 | 1000.8 |
| 20260831182011 | 67 | 355 | 1.0 | 5.0 | 0.00 | 0.00 | 0.00 | 65 | 1000.7 |
| 20260831181945 | 68 | 355 | 2.0 | 5.0 | 0.00 | 0.00 | 0.00 | 65 | 1000.8 |
| 20260831181549 | 67 | 355 | 0.0 | 4.0 | 0.00 | 0.00 | 0.00 | 65 | 1000.8 |
| 20260831181508 | 67 | 342 | 1.0 | 4.0 | 0.00 | 0.00 | 0.00 | 66 | 1000.9 |
| 20260831181055 | 67 | 342 | 0.0 | 5.0 | 0.00 | 0.00 | 0.00 | 66 | 1000.9 |
| 20260831181008 | 67 | 342 | 1.0 | 5.0 | 0.00 | 0.00 | 0.00 | 66 | 1001.0 |
| 20260831180530 | 66 | 342 | 1.0 | 5.0 | 0.00 | 0.00 | 0.00 | 67 | 1000.9 |
| 20260831180501 | 67 | 342 | 1.0 | 5.0 | 0.00 | 0.00 | 0.00 | 67 | 1001.0 |
| 20260831180111 | 66 | 342 | 2.0 | 5.0 | 0.00 | 0.00 | 0.00 | 66 | 1001.0 |
| 20260831175952 | 67 | 343 | 2.0 | 5.0 | 0.00 | 0.00 | 0.00 | 67 | 1001.1 |
| 20260831175627 | 66 | 336 | 0.0 | 4.0 | 0.00 | 0.00 | 0.00 | 67 | 1001.0 |
| 20260831175514 | 66 | 336 | 1.0 | 5.0 | 0.00 | 0.00 | 0.00 | 68 | 1001.1 |
| 20260831175034 | 66 | 335 | 1.0 | 5.0 | 0.00 | 0.00 | 0.00 | 69 | 1001.1 |
| 20260831175004 | 66 | 335 | 1.0 | 5.0 | 0.00 | 0.00 | 0.00 | 68 | 1001.2 |
| 20260831174606 | 65 | 335 | 1.0 | 5.0 | 0.00 | 0.00 | 0.00 | 68 | 1001.2 |
| 20260831174502 | 66 | 335 | 1.0 | 6.0 | 0.00 | 0.00 | 0.00 | 68 | 1001.2 |
| 20260831174044 | 65 | 335 | 0.0 | 6.0 | 0.00 | 0.00 | 0.00 | 69 | 1001.2 |
| 20260831174000 | 66 | 336 | 1.0 | 6.0 | 0.00 | 0.00 | 0.00 | 69 | 1001.2 |
| 20260831173517 | 65 | 343 | 0.0 | 4.0 | 0.00 | 0.00 | 0.00 | 70 | 1001.2 |
| 20260831173451 | 65 | 343 | 1.0 | 4.0 | 0.00 | 0.00 | 0.00 | 70 | 1001.2 |
| 20260831173050 | 65 | 342 | 0.0 | 2.0 | 0.00 | 0.00 | 0.00 | 70 | 1001.3 |
| 20260831172953 | 65 | 342 | 0.0 | 2.0 | 0.00 | 0.00 | 0.00 | 71 | 1001.3 |
| 20260831172554 | 64 | 342 | 0.0 | 2.0 | 0.00 | 0.00 | 0.00 | 72 | 1001.3 |
| 20260831172444 | 65 | 342 | 0.0 | 2.0 | 0.00 | 0.00 | 0.00 | 72 | 1001.4 |
| 20260831172032 | 64 | 342 | 0.0 | 5.0 | 0.00 | 0.00 | 0.00 | 73 | 1001.4 |
| 20260831172005 | 64 | 342 | 0.0 | 5.0 | 0.00 | 0.00 | 0.00 | 73 | 1001.4 |
| 20260831171556 | 64 | 342 | 0.0 | 5.0 | 0.00 | 0.00 | 0.00 | 73 | 1001.4 |
| 20260831171458 | 64 | 342 | 1.0 | 5.0 | 0.00 | 0.00 | 0.00 | 73 | 1001.4 |
| 20260831171024 | 63 | 342 | 1.0 | 5.0 | 0.00 | 0.00 | 0.00 | 73 | 1001.4 |
| 20260831170950 | 64 | 343 | 1.0 | 4.0 | 0.00 | 0.00 | 0.00 | 73 | 1001.5 |
| 20260831170554 | 63 | 342 | 0.0 | 4.0 | 0.00 | 0.00 | 0.00 | 73 | 1001.5 |
| 20260831170448 | 63 | 342 | 1.0 | 4.0 | 0.00 | 0.00 | 0.00 | 74 | 1001.6 |
| 20260831165946 | 63 | 342 | 0.0 | 5.0 | 0.00 | 0.00 | 0.00 | 75 | 1001.6 |
| 20260831165521 | 63 | 343 | 0.0 | 5.0 | 0.00 | 0.00 | 0.00 | 75 | 1001.5 |
| 20260831165444 | 63 | 342 | 1.0 | 5.0 | 0.00 | 0.00 | 0.00 | 75 | 1001.6 |
| 20260831165028 | 62 | 22 | 0.0 | 4.0 | 0.00 | 0.00 | 0.00 | 75 | 1001.5 |
| 20260831165006 | 63 | 22 | 1.0 | 4.0 | 0.00 | 0.00 | 0.00 | 75 | 1001.6 |
| 20260831164557 | 62 | 22 | 0.0 | 3.0 | 0.00 | 0.00 | 0.00 | 76 | 1001.6 |
| 20260831164459 | 63 | 22 | 1.0 | 3.0 | 0.00 | 0.00 | 0.00 | 76 | 1001.7 |
| 20260831164033 | 62 | 22 | 1.0 | 3.0 | 0.00 | 0.00 | 0.00 | 76 | 1001.7 |
| 20260831163945 | 62 | 22 | 1.0 | 3.0 | 0.00 | 0.00 | 0.00 | 76 | 1001.7 |
| 20260831163603 | 62 | 22 | 1.0 | 4.0 | 0.00 | 0.00 | 0.00 | 76 | 1001.6 |
| 20260831163526 | 62 | 22 | 1.0 | 4.0 | 0.00 | 0.00 | 0.00 | 77 | 1001.7 |
| 20260831163009 | 61 | 25 | 0.0 | 2.0 | 0.00 | 0.00 | 0.00 | 78 | 1001.7 |
| 20260831162956 | 62 | 25 | 1.0 | 2.0 | 0.00 | 0.00 | 0.00 | 78 | 1001.7 |
| 20260831162542 | 61 | 25 | 0.0 | 5.0 | 0.00 | 0.00 | 0.00 | 78 | 1001.7 |
| 20260831162455 | 62 | 25 | 1.0 | 5.0 | 0.00 | 0.00 | 0.00 | 78 | 1001.7 |
| 20260831162047 | 61 | 25 | 1.0 | 5.0 | 0.00 | 0.00 | 0.00 | 78 | 1001.8 |
| 20260831161945 | 62 | 25 | 1.0 | 5.0 | 0.00 | 0.00 | 0.00 | 78 | 1001.8 |
| 20260831161531 | 61 | 324 | 0.0 | 4.0 | 0.00 | 0.00 | 0.00 | 78 | 1001.9 |
| 20260831161505 | 61 | 324 | 1.0 | 4.0 | 0.00 | 0.00 | 0.00 | 78 | 1001.9 |
| 20260831161050 | 61 | 313 | 0.0 | 4.0 | 0.00 | 0.00 | 0.00 | 78 | 1001.9 |
| 20260831160955 | 61 | 313 | 1.0 | 4.0 | 0.00 | 0.00 | 0.00 | 78 | 1002.0 |
| 20260831160531 | 61 | 313 | 1.0 | 5.0 | 0.00 | 0.00 | 0.00 | 78 | 1002.0 |
| 20260831160514 | 61 | 313 | 1.0 | 5.0 | 0.00 | 0.00 | 0.00 | 78 | 1002.1 |